Location: *
(2.5500°S, 65.9667°W)
Time: 14:02:20
(UTC+00:00)

Okean O Rocket - Pass Details

Date: 04 June 2022
Orbit: 623 x 643 km, 98.2° (Epoch: 30 June)

Event Time Altitude Azimuth Distance (km) Brightness Sun altitude
Exits shadow 22:57:55 11° 129° (SE) 1,959 3.5 -9.2°
Maximum altitude 23:01:10 22° 79° (ENE) 1,358 2.8 -9.9°
Drops below altitude 10° 23:04:31 10° 27° (NNE) 1,983 4.1 -10.7°
Sets 23:07:05 0° 12° (NNE) 2,885 5.1 -11.3°
